Temperature
1 1 1 2 2 2 2 2 2 3 2 3 2 2 2 2 2 2 2 2 2 3 3 3 3 3 3 4 4 4 4 4 4 4 4 4 4 4 4 4 4 5 4 5
1 1 1 1 1 1 1 2 2 2 2 2 2 2 1 1 2 2 2 2 2 2 2 2 2 3 3 3 3 3 4 4 3 3 3 3 4 4 4 4 4 4 4 4
0 0 1 1 1 1 1 1 1 1 1 1 0 0 0 1 1 1 1 1 1 1 2 2 2 2 2 3 3 3 3 3 3 3 3 3 3 3 3 3 3 4 4 4
-1 -0 -0 1 1 1 0 0 -0 0 0 0 0 0 0 1 0 0 0 1 1 1 1 1 2 2 2 2 2 2 2 3 2 3 3 3 3 3 3 3 3 3 3 3
-2 -2 -1 1 1 0 0 -0 -1 -1 -1 -0 0 0 -0 0 -0 -0 -0 0 0 1 1 1 1 1 2 2 2 2 2 2 2 2 2 2 2 2 2 2 2 2 2 2
-2 -1 -0 1 0 1 0 -0 -1 -1 -1 -1 -1 -1 -1 -0 -0 -0 -0 -0 0 0 1 1 1 1 1 1 1 1 1 1 1 1 2 2 2 2 2 2 2 2 2 2
-2 -2 -1 -1 -0 1 0 -0 -0 -1 -1 -1 -1 -1 -1 -1 -1 -1 -1 -1 -0 -0 0 0 0 0 1 1 1 1 1 1 1 1 1 1 1 1 1 1 1 1 1 1
-3 -2 -1 -1 -1 -1 -1 -0 -0 -0 -1 -1 -1 -1 -1 -1 -1 -1 -1 -1 -1 -0 -0 -0 -0 -0 -0 0 0 0 0 0 0 0 0 0 1 1 1 1 1 1 1 1
-2 -1 -1 -1 -1 -0 -0 -1 -1 -1 -1 -1 -1 -1 -2 -2 -2 -2 -2 -1 -1 -1 -1 -1 -1 -1 -1 -1 -1 -0 -0 -0 -0 -0 -0 -0 0 0 0 0 0 0 0 0
-3 -3 -2 -1 -1 -1 -1 -1 -1 -1 -1 -1 -2 -2 -2 -2 -2 -2 -2 -2 -2 -2 -1 -1 -1 -1 -1 -1 -1 -1 -1 -1 -1 -1 -1 -1 -1 -1 -0 -0 -0 -0 -0 -0
-3 -3 -3 -2 -1 -1 -1 -1 -1 -2 -2 -2 -2 -2 -2 -2 -2 -3 -3 -2 -2 -2 -2 -2 -2 -2 -2 -2 -2 -2 -1 -1 -1 -1 -1 -1 -1 -1 -1 -1 -1 -1 -1 -1
-2 -2 -3 -2 -1 -2 -2 -2 -2 -2 -2 -2 -3 -3 -3 -3 -3 -3 -3 -3 -3 -3 -3 -3 -3 -2 -2 -2 -2 -2 -2 -2 -2 -2 -2 -2 -2 -2 -2 -2 -2 -2 -2 -1
-1 -1 -1 -1 -2 -2 -2 -2 -2 -3 -3 -3 -3 -3 -3 -3 -3 -3 -4 -4 -3 -3 -3 -3 -3 -3 -3 -3 -3 -3 -3 -3 -3 -3 -3 -3 -2 -2 -2 -2 -2 -2 -2 -2
-2 -2 -2 -2 -2 -2 -3 -3 -3 -3 -3 -4 -4 -4 -4 -4 -4 -4 -4 -4 -4 -4 -4 -4 -4 -4 -4 -3 -3 -3 -3 -3 -3 -3 -3 -3 -3 -3 -3 -3 -2 -2 -2 -2
-2 -2 -2 -2 -3 -3 -3 -3 -4 -4 -4 -4 -4 -4 -4 -4 -4 -4 -5 -5 -5 -4 -4 -4 -4 -4 -4 -4 -4 -4 -3 -4 -4 -4 -4 -4 -4 -3 -3 -3 -3 -3 -3 -2
-2 -3 -3 -3 -3 -4 -4 -4 -4 -4 -4 -4 -5 -5 -5 -5 -5 -5 -5 -5 -5 -5 -5 -5 -5 -4 -4 -4 -4 -4 -4 -4 -4 -4 -4 -4 -4 -4 -4 -4 -4 -3 -3 -3
-3 -4 -4 -4 -4 -4 -4 -4 -4 -5 -5 -5 -5 -5 -5 -5 -5 -5 -5 -5 -5 -5 -5 -5 -5 -5 -5 -5 -4 -4 -4 -4 -4 -5 -4 -5 -5 -4 -4 -4 -4 -4 -3 -3
-3 -3 -3 -4 -4 -4 -4 -5 -5 -5 -5 -5 -6 -6 -6 -6 -6 -6 -6 -6 -6 -5 -5 -6 -6 -5 -5 -5 -5 -5 -5 -5 -5 -5 -5 -5 -5 -5 -5 -4 -4 -4 -4 -4
-4 -4 -4 -4 -4 -5 -5 -5 -5 -5 -6 -6 -6 -6 -6 -6 -6 -7 -7 -7 -6 -6 -6 -6 -6 -6 -6 -6 -6 -5 -5 -5 -5 -5 -5 -5 -5 -5 -5 -5 -5 -5 -5 -4
-4 -4 -4 -5 -5 -5 -5 -5 -6 -6 -6 -6 -7 -7 -7 -7 -7 -7 -7 -7 -7 -7 -7 -7 -6 -6 -6 -6 -6 -6 -6 -6 -6 -6 -6 -6 -6 -5 -5 -5 -5 -5 -5 -5
-4 -4 -5 -5 -5 -5 -6 -6 -6 -6 -7 -7 -7 -7 -7 -7 -8 -8 -8 -8 -7 -7 -7 -7 -7 -7 -7 -7 -7 -7 -6 -6 -6 -6 -6 -6 -6 -6 -6 -6 -6 -6 -5 -5
-4 -5 -5 -5 -6 -6 -6 -7 -7 -7 -7 -7 -8 -8 -8 -8 -8 -8 -8 -8 -8 -8 -8 -8 -7 -7 -7 -7 -7 -7 -7 -7 -7 -7 -7 -7 -6 -6 -6 -6 -6 -6 -6 -6
-5 -5 -5 -6 -6 -6 -7 -7 -7 -8 -8 -8 -8 -8 -8 -8 -8 -9 -8 -8 -8 -8 -8 -8 -8 -8 -8 -8 -8 -8 -7 -7 -7 -7 -7 -7 -7 -7 -7 -7 -6 -6 -6 -6
-5 -6 -6 -6 -7 -7 -7 -7 -8 -8 -8 -8 -8 -8 -9 -9 -8 -9 -9 -9 -9 -9 -9 -9 -8 -8 -8 -8 -8 -8 -8 -8 -8 -7 -7 -7 -7 -7 -7 -7 -7 -7 -6 -6
-6 -6 -6 -7 -7 -7 -7 -8 -8 -8 -8 -8 -9 -9 -9 -9 -9 -9 -9 -9 -9 -9 -9 -9 -9 -9 -9 -9 -8 -8 -8 -8 -8 -8 -8 -8 -7 -7 -7 -7 -7 -7 -7 -7
-6 -6 -7 -7 -7 -8 -8 -8 -8 -9 -9 -9 -9 -9 -9 -9 -9 -9 -9 -9 -9 -9 -9 -9 -9 -9 -9 -9 -9 -9 -9 -8 -8 -8 -8 -8 -8 -8 -7 -7 -7 -7 -7 -7
-7 -7 -7 -8 -8 -8 -8 -8 -9 -9 -9 -9 -9 -9 -9 -9 -9 -9 -9 -9 -9 -9 -9 -9 -9 -9 -9 -9 -9 -9 -9 -9 -9 -8 -8 -8 -8 -8 -8 -8 -7 -7 -7 -7
Wind_Speed
3 3 2 3 5 3 4 5 6 5 5 6 3 2 1 1 1 2 2 1 1 1 1 1 2 2 2 2 1 1 0 0 1 1 0 0 1 1 1 1 1 1 1 2
1 2 2 5 7 5 6 5 6 5 6 5 1 1 1 1 1 1 1 1 1 1 1 1 2 2 2 2 2 1 1 1 1 0 0 1 1 1 1 1 2 2 1 1
2 3 3 5 6 5 3 2 4 6 7 2 0 0 1 0 1 1 2 2 2 2 2 2 2 2 2 2 2 0 0 1 1 0 1 1 1 1 1 1 1 2 2 2
1 3 2 5 2 2 3 2 2 3 2 1 2 1 1 2 1 1 2 3 3 3 3 3 2 2 2 1 1 0 1 1 1 1 1 1 1 1 1 2 2 2 2 2
2 1 6 6 2 1 2 3 2 3 3 1 0 2 2 2 2 1 3 3 3 3 3 2 2 2 1 1 1 1 1 1 2 1 2 1 2 2 2 2 2 2 2 2
3 2 5 5 3 2 2 3 2 1 2 1 1 0 3 3 3 3 3 3 3 3 2 2 2 1 0 1 1 1 2 2 2 2 2 2 2 2 2 2 2 2 2 2
4 4 6 5 3 1 2 5 2 1 2 2 3 4 3 2 2 2 3 3 3 3 2 2 2 1 0 1 2 3 2 2 2 2 2 2 1 1 1 1 1 1 2 2
4 4 7 2 2 4 5 1 0 1 1 1 2 1 1 1 2 2 3 3 3 3 3 3 2 1 1 2 3 2 2 2 2 2 2 2 1 1 1 1 1 1 1 2
6 7 3 2 3 2 1 2 1 1 1 1 1 1 1 1 2 2 2 3 3 2 3 3 2 1 2 3 2 2 2 2 2 2 2 2 1 1 1 1 1 2 2 2
4 6 4 3 2 2 1 2 2 1 1 1 2 2 2 2 2 2 2 3 3 2 3 3 3 2 2 3 2 1 2 2 2 2 2 2 2 1 1 1 2 2 2 2
4 4 3 3 3 3 1 0 0 1 0 1 1 2 2 2 2 2 3 3 2 2 3 4 4 3 3 2 2 2 2 2 2 2 2 2 2 2 2 2 3 3 3 3
6 6 5 5 4 2 2 2 2 1 1 1 1 2 1 2 2 2 3 3 2 3 3 4 4 4 4 3 2 2 2 2 2 2 2 2 2 2 3 3 4 4 4 3
5 3 4 3 3 2 3 2 1 1 1 1 1 1 1 2 2 2 3 3 3 3 3 4 4 4 4 3 2 2 3 3 2 2 2 2 2 2 2 3 4 4 4 4
3 2 2 2 3 2 2 2 1 1 0 1 1 1 1 2 2 3 3 3 3 3 3 3 4 4 4 3 3 3 3 3 3 2 2 2 2 2 2 2 3 4 4 5
3 3 4 3 2 2 2 2 1 0 1 1 1 2 2 2 3 4 4 3 2 3 3 3 4 5 4 4 3 3 3 2 2 2 2 2 2 2 2 2 3 3 3 4
3 3 3 3 3 3 2 2 2 3 2 2 3 3 3 3 4 4 3 2 2 4 4 4 4 5 4 4 4 3 3 4 3 2 2 2 2 2 2 2 2 2 3 3
4 4 4 4 4 4 4 4 4 4 3 3 4 4 3 3 3 4 3 3 3 4 4 4 5 5 4 4 3 3 3 3 4 3 2 2 2 2 2 2 3 3 3 3
6 6 6 6 5 5 4 3 3 3 3 4 3 3 3 3 4 4 4 3 3 4 4 4 4 4 4 4 3 3 3 3 3 3 3 2 3 2 2 3 3 3 3 3
4 4 4 4 4 4 4 3 3 3 3 3 3 3 4 4 4 4 3 3 4 5 4 4 6 5 4 4 5 3 3 3 3 3 3 4 3 2 2 3 3 3 3 2
3 3 4 3 3 3 3 3 2 3 3 3 3 3 4 4 3 3 3 4 4 4 5 5 5 4 4 4 5 2 3 3 3 3 2 2 3 3 3 3 3 3 3 2
4 4 3 3 3 3 3 3 3 3 3 3 3 4 4 4 3 3 3 5 4 4 4 6 4 3 3 4 4 2 2 3 3 3 3 3 3 3 3 3 3 3 3 3
4 4 4 4 3 3 3 3 3 3 3 3 4 4 4 4 4 4 4 4 5 6 4 3 3 5 5 5 2 2 3 3 3 3 3 3 3 3 3 3 3 3 3 3
4 4 4 4 4 4 3 3 4 4 4 4 4 4 4 4 3 3 4 3 3 6 5 3 5 7 7 3 2 2 3 3 3 3 3 3 3 3 3 3 3 3 3 3
4 4 4 3 3 3 4 4 4 3 4 4 4 4 4 3 3 3 4 5 6 7 4 5 7 7 6 2 2 2 2 3 3 3 3 3 3 3 3 3 3 3 3 4
4 4 3 3 4 4 5 3 3 3 3 3 4 4 3 3 3 3 3 4 6 6 4 5 6 6 3 2 2 3 3 3 3 3 3 3 3 3 3 3 3 3 3 4
4 4 4 5 4 4 3 3 3 3 3 3 3 3 3 2 3 3 3 3 4 5 4 3 3 4 2 3 3 3 3 4 4 3 3 3 3 3 3 4 4 4 4 4
2 2 2 2 3 3 3 3 3 4 3 3 3 3 2 2 2 2 2 2 2 3 2 2 2 2 3 3 3 3 3 3 3 3 3 3 3 3 4 4 4 4 3 3
Wind_Direction
253 268 224 252 272 254 207 210 214 233 236 262 265 255 262 40 73 78 75 55 50 28 347 336 329 318 308 306 311 316 306 273 247 246 308 5 351 342 3 351 331 317 322 317
311 274 277 288 284 259 244 235 231 250 270 273 267 107 74 59 79 78 35 356 343 330 316 297 295 298 294 296 300 299 238 260 282 305 339 328 319 343 1 349 344 342 318 304
280 325 354 293 265 227 218 228 209 234 248 258 304 204 166 11 53 27 345 338 325 307 285 274 274 276 265 272 292 330 353 354 338 318 313 310 319 344 332 321 325 314 308 296
287 24 256 252 269 191 200 251 246 253 269 235 221 191 99 71 57 353 340 326 316 310 302 296 293 297 285 297 311 4 20 359 343 317 284 302 302 291 295 302 293 284 288 287
149 234 276 290 293 187 197 273 277 251 267 292 60 86 5 15 11 314 307 307 304 302 300 304 304 302 318 344 351 10 353 327 316 303 275 265 267 268 279 286 291 286 283 280
156 187 242 263 299 296 112 289 294 235 238 243 112 233 274 314 329 323 326 327 328 329 335 336 321 319 47 330 342 309 299 296 301 300 276 257 259 270 278 269 274 289 296 282
193 220 262 266 283 96 160 251 277 219 218 192 196 226 258 300 316 317 327 334 342 346 339 325 327 347 340 307 288 296 313 311 318 316 292 270 272 284 284 283 286 287 298 305
179 205 252 262 141 182 218 236 214 215 207 201 227 268 297 308 311 323 337 344 349 350 337 327 341 354 317 301 303 320 325 321 321 320 310 315 313 299 289 281 279 282 302 311
196 214 252 192 194 233 192 190 220 224 244 207 207 237 273 292 305 315 326 333 338 338 332 331 334 341 306 307 311 317 327 318 315 318 319 322 307 290 296 280 269 272 273 282
236 255 257 253 270 298 233 214 236 224 234 199 209 239 262 283 303 313 318 323 330 333 331 326 324 320 303 304 304 309 310 311 313 310 315 320 310 293 275 263 264 269 271 273
242 266 290 269 251 252 252 184 66 327 258 224 217 253 260 277 292 299 310 316 320 312 309 312 319 318 311 306 312 302 295 299 307 306 298 302 308 298 287 273 266 268 265 260
225 219 207 238 232 213 199 213 218 226 304 317 243 254 277 284 288 293 301 309 313 311 307 310 317 316 313 306 297 285 294 296 296 299 302 307 316 332 335 321 321 321 313 291
227 215 206 225 191 181 200 210 202 199 219 268 286 262 267 279 290 291 295 298 296 297 299 305 312 312 312 312 304 288 277 283 287 289 291 297 299 300 317 334 340 335 327 317
201 157 195 202 201 199 190 190 168 149 211 272 268 281 279 279 289 288 287 285 290 296 301 306 308 308 310 313 307 296 287 282 283 274 273 275 280 286 285 293 309 316 322 323
211 199 198 189 177 168 163 148 140 230 290 306 299 280 277 277 279 281 287 291 303 302 300 303 304 307 315 315 307 296 291 281 275 271 270 267 272 275 279 283 290 304 318 321
212 186 168 171 184 186 179 187 211 248 266 279 284 281 272 268 271 277 284 284 288 293 295 296 296 304 313 312 308 300 288 284 286 277 269 267 268 269 270 272 281 290 297 304
177 196 200 206 212 215 214 219 225 239 253 264 271 279 281 285 289 288 288 287 278 281 288 290 294 302 306 305 300 292 287 284 283 283 267 261 261 261 264 267 272 278 286 295
205 207 204 202 208 218 228 232 236 246 253 261 269 272 268 268 274 281 290 299 302 300 294 289 292 301 300 298 292 280 281 278 268 261 260 258 260 259 259 264 271 276 292 301
206 202 200 202 202 202 214 229 241 249 254 255 257 260 258 260 268 275 281 285 288 294 299 296 305 312 299 297 304 281 276 275 271 265 263 263 270 266 262 264 269 274 281 288
199 196 195 196 195 200 218 232 243 254 253 249 256 264 268 270 271 276 276 274 272 272 284 293 297 291 289 291 302 286 276 274 272 269 264 259 261 263 263 266 268 271 274 272
200 199 196 195 208 216 217 219 229 247 256 249 248 258 266 273 272 270 274 283 287 281 285 293 297 288 287 290 296 284 274 273 273 269 263 260 261 264 266 268 270 270 268 271
202 201 205 205 208 229 232 226 231 239 246 252 254 257 262 269 271 271 261 262 277 293 299 284 285 288 292 297 287 278 276 274 273 270 263 257 256 258 261 262 265 268 267 268
205 205 207 210 215 231 242 236 233 233 238 244 249 253 254 256 258 266 281 277 277 291 300 283 288 293 298 302 284 277 279 279 275 271 266 259 257 257 259 261 262 264 263 265
204 206 209 211 202 217 238 243 241 243 244 249 249 251 252 260 266 256 263 283 295 298 294 287 294 298 305 306 291 283 281 281 278 275 271 265 260 259 260 262 263 263 262 262
201 202 200 197 213 229 237 240 243 245 247 251 256 256 252 247 255 269 273 277 290 301 300 295 300 307 316 305 294 286 281 273 273 275 271 267 262 259 259 260 259 259 259 259
201 210 216 220 224 228 224 220 229 238 242 253 260 257 258 261 262 268 273 276 280 298 305 301 302 306 304 292 288 284 281 285 290 288 282 279 272 266 265 264 262 259 258 259
203 206 214 230 232 224 219 217 224 233 235 241 257 260 262 268 271 274 280 288 291 294 297 298 297 295 293 291 289 286 282 280 280 277 276 276 274 269 266 265 263 264 264 263
Height
1506 1503 1503 1503 1502 1500 1500 1500 1501 1495 1494 1492 1492 1491 1491 1490 1489 1489 1489 1489 1488 1488 1488 1488 1488 1488 1488 1488 1489 1489 1489 1489 1489 1489 1489 1489 1489 1489 1489 1489 1489 1489 1489 1489
1506 1503 1502 1501 1499 1498 1499 1498 1497 1494 1494 1490 1490 1490 1490 1489 1489 1489 1488 1488 1488 1488 1487 1487 1487 1487 1486 1486 1487 1487 1487 1487 1487 1487 1487 1486 1486 1486 1486 1486 1486 1486 1486 1486
1509 1506 1502 1504 1498 1497 1497 1496 1495 1494 1492 1490 1491 1490 1489 1489 1489 1488 1488 1488 1487 1487 1486 1486 1485 1485 1484 1484 1484 1484 1484 1484 1485 1485 1484 1484 1484 1484 1483 1483 1483 1483 1483 1483
1512 1511 1512 1499 1494 1493 1494 1494 1493 1491 1490 1489 1489 1489 1489 1489 1489 1488 1487 1487 1486 1485 1484 1484 1483 1483 1483 1482 1482 1482 1482 1482 1482 1482 1482 1482 1482 1481 1481 1481 1480 1480 1480 1480
1516 1517 1508 1497 1493 1493 1494 1493 1491 1490 1489 1489 1488 1488 1488 1488 1488 1487 1486 1485 1484 1483 1483 1482 1481 1481 1480 1480 1480 1480 1480 1479 1480 1480 1479 1479 1479 1479 1478 1478 1478 1477 1477 1477
1514 1513 1507 1495 1492 1490 1493 1494 1489 1488 1488 1488 1488 1491 1489 1487 1486 1485 1485 1484 1482 1482 1481 1480 1479 1479 1478 1478 1478 1477 1477 1477 1477 1477 1476 1476 1476 1476 1476 1475 1475 1474 1474 1474
1512 1511 1502 1493 1491 1491 1497 1493 1488 1486 1486 1487 1487 1488 1487 1486 1485 1484 1483 1482 1481 1480 1479 1478 1478 1477 1476 1476 1476 1475 1475 1475 1474 1474 1474 1474 1473 1473 1473 1472 1472 1472 1471 1471
1510 1509 1501 1489 1489 1491 1490 1487 1486 1485 1486 1485 1485 1485 1484 1483 1483 1482 1481 1480 1479 1478 1477 1477 1476 1475 1474 1474 1473 1473 1473 1472 1472 1471 1471 1470 1470 1470 1470 1470 1469 1468 1468 1468
1499 1496 1489 1487 1486 1486 1485 1485 1484 1484 1484 1484 1483 1483 1482 1482 1481 1481 1480 1479 1478 1477 1476 1475 1474 1474 1472 1472 1472 1472 1471 1470 1469 1469 1468 1467 1467 1467 1467 1466 1466 1465 1465 1465
1493 1489 1487 1486 1485 1484 1484 1483 1483 1483 1483 1482 1481 1481 1481 1480 1479 1479 1478 1477 1476 1475 1474 1473 1473 1472 1471 1470 1470 1469 1467 1467 1466 1466 1465 1465 1465 1465 1464 1464 1463 1463 1462 1462
1489 1486 1484 1483 1483 1482 1482 1482 1482 1481 1481 1480 1480 1479 1479 1478 1477 1477 1476 1475 1474 1473 1472 1471 1470 1469 1469 1468 1467 1466 1465 1464 1464 1463 1462 1462 1462 1462 1461 1461 1461 1461 1460 1460
1483 1480 1481 1480 1480 1480 1480 1480 1479 1479 1478 1478 1478 1477 1476 1476 1475 1475 1474 1473 1472 1471 1470 1469 1468 1467 1466 1465 1464 1463 1462 1461 1461 1460 1460 1459 1459 1459 1458 1459 1458 1458 1457 1457
1477 1476 1477 1477 1477 1478 1478 1477 1477 1477 1476 1476 1475 1475 1474 1473 1473 1472 1471 1471 1470 1469 1468 1467 1466 1465 1463 1462 1461 1460 1459 1459 1458 1458 1457 1457 1456 1456 1455 1455 1455 1455 1454 1454
1474 1475 1475 1475 1475 1475 1475 1475 1475 1475 1474 1474 1473 1472 1471 1471 1470 1469 1469 1468 1467 1466 1465 1464 1463 1462 1460 1459 1458 1458 1457 1456 1456 1455 1455 1455 1454 1454 1453 1452 1452 1451 1451 1451
1471 1472 1472 1472 1472 1473 1473 1473 1473 1472 1472 1471 1470 1470 1469 1468 1467 1466 1466 1465 1464 1463 1462 1461 1460 1459 1458 1457 1456 1455 1454 1453 1453 1453 1452 1452 1451 1451 1451 1450 1449 1449 1448 1448
1468 1469 1469 1469 1470 1470 1470 1470 1470 1469 1469 1468 1468 1467 1466 1465 1464 1463 1462 1462 1461 1460 1459 1458 1457 1456 1455 1454 1453 1452 1451 1451 1450 1450 1449 1449 1449 1448 1448 1447 1447 1446 1445 1445
1465 1465 1466 1466 1466 1467 1467 1467 1467 1466 1466 1465 1465 1464 1463 1462 1461 1460 1459 1458 1458 1457 1456 1455 1454 1453 1452 1451 1450 1449 1449 1448 1447 1447 1446 1446 1445 1445 1444 1444 1444 1443 1443 1443
1462 1462 1463 1463 1463 1463 1464 1464 1464 1463 1463 1462 1461 1460 1459 1458 1457 1456 1456 1455 1454 1453 1453 1452 1451 1450 1449 1448 1447 1446 1445 1444 1444 1443 1443 1443 1442 1442 1441 1441 1441 1440 1440 1440
1458 1459 1460 1460 1460 1461 1460 1460 1460 1460 1459 1459 1458 1457 1456 1455 1454 1453 1452 1451 1450 1449 1449 1448 1447 1446 1445 1444 1443 1443 1442 1441 1440 1440 1440 1439 1439 1438 1438 1438 1437 1437 1437 1436
1456 1456 1457 1457 1457 1457 1457 1457 1457 1456 1456 1455 1454 1453 1452 1451 1451 1450 1449 1447 1447 1446 1445 1444 1443 1442 1441 1441 1440 1439 1438 1438 1437 1437 1436 1436 1435 1435 1435 1434 1434 1433 1433 1433
1453 1453 1453 1453 1454 1454 1454 1453 1453 1452 1452 1451 1450 1449 1449 1448 1447 1446 1445 1443 1443 1443 1441 1440 1439 1438 1438 1437 1436 1435 1435 1434 1434 1433 1433 1432 1432 1431 1431 1431 1430 1430 1430 1430
1450 1450 1450 1450 1450 1450 1450 1450 1449 1449 1448 1447 1447 1446 1445 1444 1443 1442 1441 1441 1439 1439 1438 1437 1436 1435 1434 1433 1432 1432 1431 1431 1430 1430 1429 1429 1428 1428 1428 1427 1427 1427 1427 1426
1447 1447 1447 1447 1447 1446 1446 1446 1446 1445 1444 1444 1443 1442 1441 1440 1440 1439 1437 1437 1436 1435 1434 1433 1432 1431 1431 1430 1429 1428 1428 1427 1427 1426 1426 1426 1425 1425 1424 1424 1424 1423 1423 1423
1443 1443 1443 1443 1443 1443 1442 1442 1442 1441 1441 1440 1440 1439 1438 1437 1436 1435 1434 1433 1432 1431 1430 1429 1429 1428 1427 1426 1425 1425 1424 1423 1423 1423 1422 1422 1422 1421 1421 1421 1420 1420 1420 1420
1440 1440 1440 1440 1439 1439 1439 1438 1438 1437 1437 1437 1436 1436 1435 1434 1433 1432 1431 1430 1429 1428 1427 1426 1425 1424 1423 1422 1422 1421 1420 1420 1419 1419 1418 1418 1418 1418 1417 1417 1417 1417 1416 1416
1436 1436 1436 1436 1436 1435 1435 1435 1434 1433 1433 1432 1432 1432 1431 1431 1430 1428 1427 1426 1425 1424 1423 1422 1421 1421 1420 1419 1418 1417 1416 1416 1415 1415 1414 1414 1414 1414 1414 1413 1413 1413 1413 1413
1432 1432 1432 1432 1432 1431 1431 1431 1430 1430 1429 1429 1428 1428 1428 1427 1426 1425 1424 1423 1422 1421 1420 1419 1418 1417 1416 1416 1415 1414 1413 1412 1412 1411 1411 1410 1410 1410 1410 1410 1410 1409 1409 1409